Location: Dehesa de la Cepeda
(40.6574°N, 4.3013°W)
Time: 14:23:22
(UTC+00:00)

Transit 2A Rocket - Pass Details

Date: 01 August 2021
Orbit: 586 x 917 km, 66.7° (Epoch: 27 September)

Event Time Altitude Azimuth Distance (km) Brightness Sun altitude
Rises 00:54:43 0° 312° (NW) 3,355 8.7 -30.9°
Reaches altitude 10° 00:57:57 10° 293° (WNW) 2,475 7.7 -30.8°
Enters shadow 00:58:58 13° 284° (WNW) 2,276 7.4 -30.8°
